Showing default

ALMUNTHER, 63240

Orbit data source: Space-Track

ALMUNTHER, 63240 is a Bahraini payload satellite in SSO that was launched on Sat, 15 Mar 2025 UTC via an FALCON 9 launch vehicle from the Air Force Western Test Range (AFWTR). Payload-class satellites include a variety of spacecraft equipped with specific instruments for various scientific and technological missions. These include communications satellites like Starlink; space stations such as the ISS; scientific satellites like the Hubble; Earth observation satellites from companies like Planet Labs, Umbra, and HawkEye 360; GPS; miniature CubeSats for education and research; and military/defense satellites.

Loading next visibility...
Identifier
63240, 2025-052AG
Orbit
SSO
Country
Flag of BHBH / BHR
Related business
Manufacturer
AMAN/BNSSA
Mission
Operational Civil Technology
Bus & Motor
CUBESAT 3U?, Unknown motor
Mass
3 kg wet, 3 kg dry
Launch date (UTC)
2025-03-15 (7 months ago)
Launch vehicle
FALCON 9
Launch site
Air Force Western Test Range (AFWTR)
Object type
Payload
Rocket body
Debris
Shape & HBR
Box, 0.1 m
Radar Cross Section
0.035 m², Small (<0.1 m²)

Expand to show TLE details & history
Last TLE update: 18 hours ago

TLE from 18 hours ago
0 ALMUNTHER
1 63240U 25052AG  25288.66230240  .00020010  00000-0  87502-3 0  9995
2 63240  97.4118 180.3899 0005757 308.3108  51.7610 15.22093816 32699
Epoch: 2025-10-15T15:53Z
TLE epoch observation values (Epoch: 2025-10-15T15:53:42.927Z)
Latitude
-0.00003°
Longitude
-82.47212°
Altitude
500.169 km
Speed
7.616 km/s
True Right ascension
12h 01m 33s
True Declination
0° 00' 00"
Sunlit
Object was in daylight at epoch
Visualization orbit readout
Latitude
Unknown
Longitude
Unknown
Altitude
Unknown
Speed
Unknown
Apparent Right ascension
Unknown
Apparent Declination
Unknown
Sunlit
N/A
Visualization observer readout
Local Sidereal Time
04:23:26
Azimuth
Unknown
Elevation
Unknown
Doppler factor
Unknown
Orbital elements
Apogee altitude
500.447 km
Perigee altitude
492.532 km
Semi-major axis
6,874.626 km
Eccentricity
0.00058
Inclination
97.4118°
RAAN
180.3899°
Arg. of periapsis
308.3108°
True anomaly
51.81284°
Mean anomaly
51.761°
Eccentric anomaly
51.78692°
Mean motion
3.80776 °/min
Orbital period
94.54 mins
BSTAR
0.00087502
Loading maneuver chart data...
Computing Atmospheric mass density...
Loading historical data...
Loading historical data...
Loading historical data...
Loading historical data...
Loading historical data...
Loading historical data...
Loading historical data...

Documentation

Showing up to 5 results
|